Regional Weather Roundup
Issued by NWS Sterling, VA

Home | Current Version | Previous Version | Graphics & Text | Print | Product List | Glossary Off
Versions: 1 2 3 4 5 6 7 8 9 10 11 12 13 14 15 16 17 18 19 20 21 22 23 24 25 26 27 28 29 30 31 32 33 34 35 36 37 38 39 40 41 42 43 44 45 46 47 48 49 50

000
ASUS41 KLWX 281611
RWRLWX

REGIONAL WEATHER ROUNDUP
NATIONAL WEATHER SERVICE BALTIMORE MD/WASHINGTON DC
1200 PM EDT THU JUL 28 2016

Note: "FAIR" indicates few or no clouds below 12,000 feet
with no significant weather and/or obstructions to visibility.
 TC=TEMPERATURE CELSIUS

 * =Non NWS site. Station does not report precipitation (e.g. rain,
    snow, etc.), thunder, or fog.

DCZ001-MDZ009-015-VAZ040>042-051-053>054-281700-
WASHINGTON METRO

CITY           SKY/WX    TMP DP  RH WIND       PRES   REMARKS
WASHINGTON NAT PTSUNNY   88  74  63 S7        29.89F HX  96
DULLES         PTSUNNY   88  71  57 VRB5      29.90F HX  94
ANDREWS AFB    CLOUDY    87  74  66 VRB3      29.89  HX  95
FT BELVOIR     FAIR      86  74  68 S3        29.89  HX  94
QUANTICO       PTSUNNY   85  74  69 S5        29.90S HX  92
COLLEGE PARK*  FAIR      86  73  66 NE3       29.89S HX  93
LEESBURG*      FAIR      86  77  74 W5        29.92S HX  97
GAITHERSBURG*  CLOUDY    84  73  70 CALM      29.94F HX  91

$$

MDZ006>007-011-014-281700-
BALTIMORE METRO

CITY           SKY/WX    TMP DP  RH WIND       PRES   REMARKS
BWI AIRPORT    CLOUDY    89  74  60 SE6       29.88F HX  98
MD SCIENCE CTR   N/A     90  75  61 MISG      29.88F HX 100
ANNAPOLIS        N/A    N/A N/A N/A MISG      29.88F
FORT MEADE*    CLOUDY    88  73  62 SW3       29.92S HX  96

$$

MDZ012-015-019>023-281700-
MARYLAND EASTERN SHORE

CITY           SKY/WX    TMP DP  RH WIND       PRES   REMARKS
OCEAN CITY     SUNNY     85  79  82 VRB7      29.91F HX  98
SALISBURY      MOSUNNY   87  77  72 S9        29.89F HX  99
CAMBRIDGE*     CLOUDY    88  77  70 S5        29.88F HX 100
EASTON*        PTSUNNY   90  81  74 SE6       29.93S HX 108

$$

MDZ017>025-281700-
SOUTHERN MARYLAND

CITY           SKY/WX    TMP DP  RH WIND       PRES   REMARKS
PATUXENT RIVER CLOUDY    86  75  69 SE8       29.89S HX  95
ST INIGOES     CLOUDY    87  75  67 SE5       29.89S HX  96
LEONARDTOWN*   CLOUDY    86  73  66 S3        29.91  HX  93

$$

MDZ003>005-281700-
NORTH CENTRAL MARYLAND

CITY           SKY/WX    TMP DP  RH WIND       PRES   REMARKS
FREDERICK*     SUNNY     88  73  62 S3        29.93S HX  96
HAGERSTOWN APT PTSUNNY   86  66  51 W5        29.92S

$$

MDZ501>502-281700-
WESTERN MARYLAND

CITY           SKY/WX    TMP DP  RH WIND       PRES   REMARKS
OAKLAND*       CLOUDY    64  63  94 W8        30.06R FOG
CUMBERLAND*    CLOUDY    79  72  78 CALM      29.97S

$$

VAZ025>031-281700-
SHENANDOAH VALLEY

CITY           SKY/WX    TMP DP  RH WIND       PRES   REMARKS
WINCHESTER*    PTSUNNY   82  72  69 CALM      29.92F
FRONT ROYAL*   FAIR      84  73  70 CALM      29.91F HX  91
LURAY*         NOT AVBL
NEW MARKET*    FAIR     N/A N/A N/A CALM      29.91F
STAUNTON*      FAIR      83  73  71 CALM      29.96F
WAYNESBORO*    PTSUNNY   85  71  63 CALM      29.96F HX  90

$$

WVZ021-048>050-054>055-281700-
EASTERN WEST VIRGINIA PANHANDLE

CITY           SKY/WX    TMP DP  RH WIND       PRES   REMARKS
MARTINSBURG    FAIR      84  71  65 S6        29.91S
PETERSBURG*    FAIR      87  73  62 CALM      29.92F HX  94

$$

VAZ036>039-050-281700-
CENTRAL FOOTHILLS

CITY           SKY/WX    TMP DP  RH WIND       PRES   REMARKS
CHARLOTTESVILL FAIR      90  71  53 NE3       29.91F HX  96
CULPEPER*      FAIR      84  76  75 CALM      29.91F HX  93
ORANGE*          N/A     86  73  66 CALM      29.93F HX  93
GORDONSVILLE*  FAIR      87  74  64 N3        29.91F HX  95
WARRENTON*     FAIR      85  69  58 CALM      29.90F

$$

VAZ055>057-281700-
NORTH AND CENTRAL PIEDMONT

CITY           SKY/WX    TMP DP  RH WIND       PRES   REMARKS
FREDERICKSBRG* FAIR      84  75  74 CALM      29.89F HX  92
STAFFORD*      FAIR      85  74  70 SW3       29.94F HX  92

$$

NCZ024-NYZ072-PAZ021-071-VAZ022-071-281700-
OTHER REGIONAL OBSERVATIONS

CITY           SKY/WX    TMP DP  RH WIND       PRES   REMARKS
NEW YORK CITY  MOSUNNY   90  61  37 VRB3      29.93F HX  90
PHILADELPHIA   PTSUNNY   91  67  44 SE5       29.90F HX  94
PITTSBURGH     RAIN      73  71  93 SW6       29.95S FOG
ROANOKE        FAIR      86  71  60 VRB6      29.97F HX  91
RICHMOND       PTSUNNY   88  74  63 S8        29.90S HX  96
RALEIGH        MOSUNNY   91  75  59 VRB7      29.93F HX 101

$$

ANZ530>537-281700-
MARINE OBSERVATIONS

STATION/POSITION TIME  TEMP    WIND        PRES
                       AIR SEA DIR/SP/G
                 (UTC) (F)     (DEG/KT/KT) (MB)
THOMAS PT LIGHT  1600   84 84  200/  6/  7 1013.6S
BALT KEY BRIDGE  1548   85     100/  9/ 10 1011.9
COVE POINT       1548   83     190/  7/  8 1012.8R
LEWISETTA        1548   84 87  100/  8/  8 1011.8S
SOLOMONS ISLAND  1548   86 86  130/  6/  7   N/A
PINEY POINT      1548          160/  7/  7   N/A

$$




USA.gov is the U.S. government's official web portal to all federal, state and local government web resources and services.